STARLINK-2180, 47762

Orbit data source: Space-Track

STARLINK-2180, 47762 is a payload satellite owned by SpaceX/Seattle (US) in LEO that was launched on Thu, 04 Mar 2021 UTC via an FALCON 9 launch vehicle from the Air Force Eastern Test Range (AFETR). Payload-class satellites include a variety of spacecraft equipped with specific instruments for various scientific and technological missions. These include communications satellites like Starlink; space stations such as the ISS; scientific satellites like the Hubble; Earth observation satellites from companies like Planet Labs, Umbra, and HawkEye 360; GPS; miniature CubeSats for education and research; and military/defense satellites.

Not visible in the next 10 days
Identifier
47762, 2021-017AS
Orbit
LEO
Country
Flag of USUS
Related business
Manufacturer
SpaceX/Seattle
Mission
Partially operational Commercial Communications
Bus & Motor
STARLINK, Unknown motor
Mass
260 kg wet, ~248 kg dry
Launch date (UTC)
2021-03-04 (5 years ago)
Launch vehicle
FALCON 9
Launch site
Air Force Eastern Test Range (AFETR)
Object type
Payload
Rocket body
Debris
Shape & HBR
Box + 1 Pan, 10.1 m
Radar Cross Section
13.562 m², Large (>1 m²)

Expand to show TLE details & history
Last TLE update: 12 hours ago

TLE from 12 hours ago
0 STARLINK-2180
1 47762U 21017AS  26236.00002315  .00389544  73337-4  86598-3 0  9996
2 47762  53.1456 113.1454 0004457 214.1820 174.4079 15.97372615  5989
Epoch: 2026-08-24T00:00Z
TLE epoch observation values (Epoch: 2026-08-24T00:00:02.000Z)
Latitude
22.5757°
Longitude
158.90103°
Altitude
285.383 km
Speed
7.738 km/s
True Right ascension
08h 44m 47s
True Declination
22° 26' 44"
Sunlit
Object was in daylight at epoch
Visualization orbit readout
Latitude
Unknown
Longitude
Unknown
Altitude
Unknown
Speed
Unknown
Apparent Right ascension
Unknown
Apparent Declination
Unknown
Sunlit
N/A
Visualization observer readout
Local Sidereal Time
02:48:20
Azimuth
Unknown
Elevation
Unknown
Doppler factor
Unknown
Orbital elements
Apogee altitude
284.946 km
Perigee altitude
279.009 km
Semi-major axis
6,660.115 km
Eccentricity
0.00045
Inclination
53.1456°
RAAN
113.1454°
Arg. of periapsis
214.182°
True anomaly
174.41287°
Mean anomaly
174.4079°
Eccentric anomaly
174.41039°
Mean motion
3.9932 °/min
Orbital period
90.15 mins
BSTAR
0.00086598
Loading maneuver chart data...
Computing Atmospheric mass density...

Documentation

Showing up to 5 results
|